This is the latest recevied weather packets stored in our database for station/object WY7EM. If no packets are shown the sender has not sent any weather packets the latest 10 day(s).
| Time | Temp. | Humidity | Pressure | Rain* | Wind** | Luminosity | Snow |
|---|---|---|---|---|---|---|---|
| 1777866710 | 17.22° C | 46% | 1012.3 hPa | 0 mm | - | 0 W/m² | - |
| 1777866407 | 17.78° C | 45% | 1012.1 hPa | 0 mm | - | 0 W/m² | - |
| 1777866104 | 17.78° C | 45% | 1011.9 hPa | 0 mm | - | 0 W/m² | - |
| 1777865802 | 17.78° C | 45% | 1012 hPa | 0 mm | - | 0 W/m² | - |
| 1777865499 | 17.78° C | 45% | 1012.1 hPa | 0 mm | - | 0 W/m² | - |
| 1777865195 | 17.78° C | 45% | 1011.8 hPa | 0 mm | - | 0 W/m² | - |
| 1777864892 | 17.78° C | 45% | 1011.8 hPa | 0 mm | - | 0 W/m² | - |
| 1777864590 | 17.78° C | 45% | 1011.4 hPa | 0 mm | - | 0 W/m² | - |
| 1777864286 | 17.78° C | 44% | 1011.6 hPa | 0 mm | - | 0 W/m² | - |
| 1777863983 | 18.33° C | 43% | 1011.5 hPa | 0 mm | - | 0 W/m² | - |
| 1777863680 | 18.33° C | 42% | 1011.3 hPa | 0 mm | - | 0 W/m² | - |
| 1777863376 | 18.33° C | 42% | 1011.3 hPa | 0 mm | - | 0 W/m² | - |
| 1777863073 | 18.89° C | 41% | 1011 hPa | 0 mm | - | 0 W/m² | - |
| 1777862771 | 19.44° C | 40% | 1011.1 hPa | 0 mm | - | 0 W/m² | - |
| 1777862467 | 20° C | 38% | 1010.7 hPa | 0 mm | - | 0 W/m² | - |
| 1777862163 | 21.67° C | 31% | 1010.5 hPa | 0 mm | - | 0 W/m² | - |
| 1777861859 | 21.67° C | 30% | 1010.4 hPa | 0 mm | - | 0 W/m² | - |
| 1777861556 | 21.67° C | 30% | 1010.3 hPa | 0 mm | - | 0 W/m² | - |
| 1777861252 | 21.67° C | 30% | 1010.1 hPa | 0 mm | - | 1 W/m² | - |
| 1777860950 | 21.67° C | 30% | 1010.2 hPa | 0 mm | - | 1 W/m² | - |
| 1777860646 | 21.67° C | 30% | 1010.1 hPa | 0 mm | - | 2 W/m² | - |
| 1777860343 | 21.67° C | 30% | 1009.8 hPa | 0 mm | - | 4 W/m² | - |
| 1777860040 | 21.67° C | 30% | 1009.8 hPa | 0 mm | - | 7 W/m² | - |
| 1777859736 | 22.22° C | 29% | 1009.9 hPa | 0 mm | - | 9 W/m² | - |
| 1777859432 | 22.22° C | 28% | 1010.1 hPa | 0 mm | - | 13 W/m² | - |
* Rain latest hour (hover to see other rain measurements)
** Current wind speed in m/s (hover to see current wind gust speed)